Theta_e
320 320 321 321 321 320 320 320 320 320 320 318 319 318 318 317 316 316 316 318 320 321 323 323 322 321 321 320 319 319 319 319 320 327 326 328 333 339 345 349 349 348 350 352
320 321 320 319 320 320 320 321 321 320 319 319 319 319 318 316 316 316 317 318 321 322 323 323 321 320 319 319 318 318 318 318 318 318 328 327 335 336 336 341 345 347 348 350
319 319 319 319 320 321 321 321 321 320 319 319 319 317 316 316 316 317 318 320 321 322 323 322 321 320 319 319 317 317 317 317 317 318 317 327 329 339 340 340 342 345 348 351
319 319 319 320 320 320 321 319 318 319 320 319 317 317 315 316 316 317 317 320 322 322 322 321 321 320 319 317 316 316 317 318 317 317 317 321 329 332 335 338 337 341 347 348
319 319 320 319 320 319 320 318 318 318 319 318 317 318 318 317 317 317 318 320 321 322 322 321 321 319 318 317 316 316 316 317 317 317 317 318 319 325 331 334 338 341 343 347
319 318 318 319 319 318 318 318 319 319 318 319 317 318 316 316 317 316 319 320 321 321 321 321 319 318 317 317 317 316 316 316 316 316 316 317 319 321 326 332 336 338 339 341
318 319 319 319 320 318 318 321 326 319 322 322 318 318 318 317 316 317 317 318 319 320 320 320 319 318 317 317 317 316 316 314 314 314 315 316 317 320 323 330 333 336 337 337
320 319 318 319 318 318 318 320 321 325 320 317 317 317 319 318 318 319 318 319 319 318 318 319 318 317 317 317 316 316 314 313 313 313 314 316 317 318 319 324 331 335 335 337
321 319 318 317 317 318 320 320 320 324 321 321 319 317 318 318 317 317 318 319 319 318 319 318 318 317 317 316 315 314 313 312 313 313 313 315 316 317 318 321 329 333 337 336
320 323 317 316 317 318 319 318 322 324 326 321 316 317 316 318 317 317 317 317 318 318 318 318 318 317 316 315 313 312 312 312 312 312 313 314 315 315 317 320 326 333 337 338
318 322 318 317 318 318 318 320 319 320 321 325 322 318 317 318 318 318 318 318 318 318 318 318 317 316 315 313 311 311 311 311 312 312 312 313 314 315 316 318 323 331 337 339
318 319 321 318 316 316 317 318 318 329 322 320 325 326 318 318 319 320 319 320 318 318 318 317 316 315 313 311 310 310 311 311 311 311 311 312 314 314 315 318 322 331 336 339
317 321 323 317 317 317 317 316 316 317 320 323 327 323 317 316 319 318 318 317 317 317 316 315 315 314 312 310 310 310 311 310 310 310 310 311 313 314 315 317 321 330 335 338
317 318 320 323 320 318 318 317 316 318 325 323 323 320 318 316 316 317 317 316 315 315 315 314 313 312 310 309 310 310 309 309 308 308 309 311 313 314 314 317 319 330 335 337
318 321 319 317 316 316 317 317 316 317 317 320 318 318 316 315 318 316 315 314 314 314 313 313 311 311 309 309 309 308 307 307 306 306 308 310 312 313 314 316 320 331 334 334
315 319 318 318 316 315 315 315 314 314 314 315 315 316 313 314 315 314 313 314 314 313 311 310 310 310 309 307 307 305 305 304 304 305 306 308 311 313 314 316 321 330 331 333
317 318 320 321 314 314 318 316 313 312 313 316 320 315 314 316 314 314 314 314 314 311 310 310 309 308 306 305 304 303 303 303 304 304 306 308 310 313 315 317 320 330 330 331
319 318 317 319 315 316 313 312 312 314 314 314 314 315 316 314 313 313 311 313 312 311 310 308 306 305 304 303 303 302 302 303 303 304 306 308 310 314 315 317 322 328 329 330
317 317 317 315 315 313 312 315 317 320 316 313 315 315 314 312 311 312 311 311 310 308 306 305 304 303 303 303 302 302 301 302 302 304 307 308 311 314 315 318 324 325 324 324
315 315 315 316 317 316 313 314 312 313 318 315 314 312 311 313 311 310 309 308 307 305 304 304 303 303 302 302 301 301 301 302 302 305 307 309 312 314 315 317 322 318 318 318
313 312 314 313 315 313 312 312 313 317 318 314 312 312 311 310 310 310 308 306 305 304 303 303 303 302 301 301 300 301 301 301 303 306 308 310 313 314 316 318 316 315 314 312
313 314 315 315 315 315 312 313 315 313 310 311 311 311 310 308 308 307 306 305 303 304 302 301 301 301 300 300 300 300 300 302 305 307 309 311 314 315 316 314 311 311 311 308
314 313 314 314 314 313 313 313 312 312 313 311 310 309 307 307 306 305 303 303 302 301 301 300 300 300 299 299 299 300 300 302 306 308 310 312 314 315 315 311 309 307 307 306
311 311 315 313 313 312 312 312 311 311 312 310 308 306 305 305 304 303 303 301 300 300 300 300 300 299 299 299 299 300 301 302 304 307 311 313 314 315 312 310 308 307 306 306
312 311 314 313 312 311 312 312 311 310 309 307 305 305 304 303 303 301 301 300 300 299 299 299 299 299 299 299 300 300 301 302 304 308 312 313 314 311 309 308 308 307 307 307
312 313 314 313 310 311 312 312 310 309 307 306 305 303 303 302 301 300 300 299 298 299 298 298 299 300 300 301 301 302 302 304 307 310 312 312 310 305 305 305 304 305 304 303
Wind_Speed
0 10 4 6 4 7 9 11 12 11 12 11 15 17 18 18 18 14 10 4 5 6 3 4 3 5 6 9 12 16 19 22 23 19 14 17 21 23 24 27 27 26 24 23
8 7 2 5 6 8 11 13 13 12 6 13 18 22 19 14 12 8 6 5 7 6 6 3 1 3 6 9 11 15 17 20 20 21 18 15 18 19 24 25 27 26 25 23
9 12 2 6 10 10 14 11 13 14 16 18 19 20 9 6 7 7 6 4 5 6 5 4 1 2 5 8 11 13 16 19 19 21 20 17 13 19 21 22 26 26 27 26
9 4 5 9 13 6 14 8 8 13 16 15 15 12 15 6 8 10 9 7 8 8 7 5 4 2 5 9 10 12 15 17 19 20 20 18 14 16 21 21 24 24 23 26
3 7 9 11 6 3 12 6 14 16 17 18 18 8 3 5 11 11 6 9 9 8 7 6 4 3 5 8 12 14 16 18 19 19 19 18 17 16 16 22 24 22 23 24
6 3 6 4 0 3 8 14 16 11 9 10 4 7 11 6 6 7 7 7 7 7 8 8 7 8 10 13 14 16 19 20 20 21 20 19 19 18 18 17 22 24 24 25
11 3 3 3 7 6 6 11 6 5 6 11 3 8 15 15 11 11 10 8 8 8 10 10 10 11 14 16 17 19 21 24 23 22 21 19 20 19 19 19 18 22 25 25
5 3 0 3 9 12 13 8 5 6 9 16 18 11 4 4 4 6 7 7 6 9 10 9 11 14 17 17 18 19 22 25 25 24 26 22 21 20 20 20 20 20 23 26
8 4 3 12 14 7 2 7 6 8 16 14 12 13 13 15 12 10 13 9 12 13 7 13 14 14 15 18 20 21 22 24 24 26 25 23 23 22 23 23 22 22 21 24
4 9 11 5 7 12 10 5 5 4 5 13 13 21 16 6 3 7 11 11 14 9 11 14 13 15 16 19 22 22 22 24 24 24 24 23 24 24 24 23 23 22 22 21
8 4 6 9 8 14 7 10 10 9 11 15 18 11 14 15 17 17 10 10 17 16 13 15 15 19 22 22 24 24 24 24 24 22 23 24 25 25 24 24 24 23 22 22
6 6 14 20 19 13 11 14 16 10 18 18 16 22 18 19 16 26 17 17 17 15 15 16 19 22 23 23 25 25 24 23 23 23 25 25 26 25 24 23 23 23 23 23
5 4 7 9 7 4 7 8 11 17 19 24 18 19 17 19 13 18 12 8 14 18 19 19 18 19 23 23 24 24 23 24 25 26 26 26 25 24 23 23 23 22 21 23
7 11 14 13 19 18 21 22 21 21 12 21 22 29 26 24 19 17 17 16 17 19 21 20 20 18 25 25 25 25 25 24 27 27 26 25 24 24 22 23 23 20 16 19
4 13 15 18 20 21 23 23 21 21 24 21 23 25 20 17 15 15 12 16 20 22 23 21 20 20 27 27 27 26 26 27 26 26 26 26 25 23 22 22 21 17 14 15
9 12 14 20 20 18 19 22 24 15 16 18 21 24 18 20 17 15 18 21 23 25 22 21 23 25 28 28 26 27 27 28 26 26 26 26 25 22 20 20 20 16 15 13
13 9 10 15 15 20 18 7 14 18 15 13 12 21 23 19 17 19 23 24 26 23 23 26 27 23 27 28 26 27 28 29 27 25 25 24 24 20 18 17 20 16 14 12
8 8 6 12 18 15 14 14 8 11 15 17 22 19 13 18 23 24 24 23 24 26 28 26 22 26 28 29 29 27 27 27 26 26 24 22 22 18 16 15 17 11 9 9
8 6 7 9 13 19 10 6 1 4 19 24 8 15 23 23 23 24 20 17 25 28 25 27 27 32 30 26 27 28 26 25 24 24 22 19 19 15 13 11 10 6 5 5
6 11 9 14 13 10 13 10 10 22 18 7 20 20 21 24 15 16 26 26 24 23 28 28 34 34 32 29 26 24 25 22 24 23 20 17 15 13 12 11 4 2 4 6
10 11 11 10 14 13 8 16 20 10 8 25 26 23 21 13 14 28 27 23 24 30 28 28 27 29 29 27 24 22 21 22 25 22 18 17 14 11 9 5 5 5 6 8
10 6 7 7 11 7 16 19 2 9 13 20 19 18 20 26 25 29 27 26 23 21 30 29 25 24 27 25 22 21 21 23 22 18 17 16 12 9 6 12 10 11 13 15
5 5 6 6 8 22 18 16 14 17 20 19 17 24 24 25 26 25 22 21 24 28 27 27 24 25 23 22 19 20 22 21 19 17 16 14 9 9 12 17 16 15 14 14
9 9 6 11 9 18 18 16 18 19 21 24 22 22 24 22 23 22 18 19 17 23 24 27 25 22 23 20 19 20 21 20 19 19 17 14 10 9 13 16 17 18 13 12
11 9 7 13 18 15 14 20 22 23 24 23 22 21 20 20 19 20 19 19 17 23 26 26 23 23 25 24 23 21 20 20 20 22 15 11 10 14 17 16 14 14 11 13
4 5 3 5 11 14 16 22 22 23 24 20 20 19 18 16 20 20 17 20 22 22 27 26 25 24 26 24 22 19 17 18 18 14 12 12 17 18 20 23 23 13 13 14
Wind_Direction
10 288 320 348 317 320 308 297 291 297 327 295 294 293 290 295 295 288 284 278 216 244 160 119 79 49 39 30 21 17 11 9 7 354 315 262 246 242 239 235 234 228 226 224
239 261 337 299 282 276 294 289 287 309 277 309 300 295 291 281 279 301 286 244 220 211 194 159 95 39 26 15 12 8 4 1 2 360 345 291 276 255 246 242 235 232 227 224
287 303 1 268 276 272 288 286 297 310 310 287 291 286 275 219 263 248 224 271 241 235 217 197 199 22 357 359 359 1 359 357 356 352 350 348 280 265 260 249 235 230 228 221
282 21 284 276 283 293 293 13 302 287 294 295 318 291 285 213 247 226 260 239 220 208 206 217 241 318 346 350 347 347 348 350 349 352 346 340 324 285 272 259 249 234 233 228
360 305 305 288 338 313 305 323 295 291 288 288 274 238 113 184 260 251 263 221 228 227 233 243 254 300 320 331 334 334 334 339 338 340 340 329 318 316 299 268 263 248 241 233
296 310 276 330 347 299 317 285 285 282 269 259 277 239 285 292 295 266 227 237 231 244 237 250 260 280 307 320 325 327 329 331 331 329 329 321 311 304 302 293 271 251 245 236
313 178 150 263 271 276 262 303 308 277 219 274 107 262 260 286 275 264 261 266 252 259 261 257 274 295 309 313 321 322 325 323 325 321 313 313 309 299 292 285 277 259 247 240
337 247 95 142 304 313 290 293 262 289 302 304 303 268 357 352 296 269 258 261 260 289 286 293 291 289 303 308 311 314 316 315 316 316 314 315 309 302 290 284 282 273 252 242
314 261 261 275 296 266 88 249 358 299 277 270 267 262 216 234 262 265 261 254 273 285 315 307 309 300 300 305 306 310 310 308 309 311 310 310 304 298 288 286 280 274 261 248
320 293 285 334 280 240 252 344 247 210 276 287 285 310 298 310 283 267 299 293 327 307 293 304 306 303 299 303 304 306 306 304 303 303 301 300 298 292 287 286 280 275 263 247
298 286 276 268 251 284 235 226 224 287 275 272 288 280 341 326 302 294 284 341 310 311 324 311 307 303 306 308 307 309 306 304 301 300 297 293 292 291 285 285 282 273 262 245
353 286 284 288 287 297 290 280 285 263 275 269 268 273 295 305 2 333 331 330 310 321 309 307 305 305 307 308 309 308 306 304 300 301 297 289 289 291 284 283 283 272 262 247
357 287 306 296 156 187 235 270 263 270 280 276 272 277 298 300 231 284 296 314 323 315 308 308 302 308 303 308 307 305 304 306 305 300 295 287 288 290 282 283 285 273 262 242
288 256 249 270 291 304 295 292 287 283 273 275 274 288 300 308 312 315 336 334 313 307 306 308 306 306 306 309 306 305 305 305 303 298 292 288 288 288 282 284 287 273 264 235
285 273 278 280 291 294 285 288 292 291 292 288 292 291 299 321 335 332 327 313 302 300 304 308 309 311 306 309 307 306 308 302 302 294 290 288 288 286 281 282 285 262 246 222
300 282 293 287 284 287 299 290 287 303 315 308 300 302 308 319 323 326 309 300 305 307 310 309 309 308 309 308 304 306 300 299 299 289 288 287 289 283 279 281 281 251 241 228
281 278 303 287 307 309 291 327 311 312 306 312 303 304 316 328 322 307 315 307 302 304 310 313 312 308 304 302 305 296 295 296 291 287 284 284 283 278 277 279 293 262 236 231
267 280 279 293 301 298 345 339 340 325 309 312 306 313 331 315 312 315 308 292 301 310 314 313 307 299 295 295 292 290 291 289 288 285 280 280 279 273 274 280 290 268 244 229
224 290 298 281 301 291 297 14 79 286 303 300 317 330 319 312 301 294 299 306 312 313 310 302 298 295 294 291 292 290 287 283 284 279 277 278 275 270 268 279 272 278 254 208
218 245 257 284 292 302 317 24 343 325 296 19 341 316 303 305 297 299 309 314 311 304 300 303 297 298 297 297 291 285 281 279 277 272 271 271 269 263 265 300 209 218 184 164
306 320 290 294 296 295 25 351 334 290 324 326 313 300 302 302 293 302 307 307 310 309 300 293 295 296 293 291 287 274 273 271 269 268 269 266 258 253 252 212 163 165 149 129
301 300 303 303 288 293 341 338 292 295 304 296 298 307 304 305 305 308 311 313 310 301 304 307 295 288 290 287 283 276 269 267 266 267 267 262 248 239 212 169 141 142 147 123
284 299 295 284 291 307 333 312 311 301 307 310 315 314 315 308 309 309 304 304 308 307 301 299 293 291 288 283 276 270 267 267 266 263 259 247 238 216 180 158 143 136 146 132
292 309 255 292 277 320 316 310 308 324 317 319 318 314 313 306 301 305 306 304 300 300 300 300 297 292 288 281 273 264 266 266 264 260 249 230 228 161 164 151 149 148 151 144
306 305 267 278 296 311 291 311 319 330 324 319 317 313 302 303 305 307 304 302 300 301 298 298 294 288 284 283 272 265 256 254 251 249 236 217 165 150 128 122 141 150 156 159
275 318 275 268 288 285 296 307 332 330 327 321 319 310 308 307 307 304 302 304 303 301 302 300 296 290 286 280 270 262 249 241 232 230 202 197 135 137 126 117 106 116 129 136